Newport News, VA

5:38 AM EDT on May 29, 2017 (GMT -0400)
Newport News-Williamsburg International

Weather History for KPHF - April, 2013

Change the Weather History Date:

Thursday, April 4, 2013

  Actual Average Record
Temperature  
Mean Temperature 43 °F -  
Max Temperature 51 °F 69 °F 86 °F (1999)
Min Temperature 35 °F 45 °F 33 °F (1954)
Degree Days  
Heating Degree Days 22    
Moisture  
Dew Point 26 °F    
Average Humidity 54    
Maximum Humidity 82    
Minimum Humidity 32    
Precipitation  
Precipitation 0.28 in - - ()
Sea Level Pressure  
Sea Level Pressure 30.29 in    
Wind  
Wind Speed 7 mph (NE)    
Max Wind Speed 14 mph    
Max Gust Speed 18 mph    
Visibility 9 miles    
Events Rain    
Averages and records for this station are not official NWS values.
T = Trace of Precipitation, MM = Missing Value Source: NWS Daily Summary

Daily Weather History Graph

Daily Weather History Graph

Search for Another Location

Airport or City:

Trip Planner

Search our weather history database for the weather conditions in past years. The results will help you decide how hot, cold, wet, or windy it might be!

Date:

Astronomy

Apr. 04, 2013 Rise Set
Actual Time 6:46 AM EDT 7:31 PM EDT
Civil Twilight 6:20 AM EDT 7:57 PM EDT
Nautical Twilight 5:49 AM EDT 8:28 PM EDT
Astronomical Twilight 5:17 AM EDT 9:00 PM EDT
Moon 3:04 AM EDT (4/4) 1:54 PM EDT (4/4)
Length of Visible Light 13h 37m
Length of Day
12h 44m
Waning Crescent, 34% of the Moon is Illuminated
Apr 4
Waning Crescent
Apr 10
New
Apr 18
First Quarter
Apr 25
Full
May 2
Last Quarter

Hourly Weather History & Observations

Time (EDT) Temp. Windchill Dew Point Humidity Pressure Visibility Wind Dir Wind Speed Gust Speed Precip Events Conditions
12:54 AM 44.1 °F 41.5 °F 19.0 °F 37% 30.38 in 10.0 mi NE 4.6 mph - N/A   Clear
1:54 AM 42.1 °F 38.4 °F 21.0 °F 43% 30.38 in 10.0 mi NNE 5.8 mph - N/A   Clear
2:54 AM 39.0 °F 34.8 °F 21.9 °F 50% 30.37 in 10.0 mi North 5.8 mph - N/A   Clear
3:54 AM 39.0 °F 34.0 °F 19.9 °F 46% 30.37 in 10.0 mi NNE 6.9 mph - N/A   Clear
4:54 AM 37.0 °F 32.4 °F 19.0 °F 48% 30.37 in 10.0 mi North 5.8 mph - N/A   Clear
5:54 AM 37.0 °F 34.5 °F 19.9 °F 50% 30.38 in 10.0 mi NNW 3.5 mph - N/A   Clear
6:54 AM 35.1 °F - 23.0 °F 61% 30.40 in 10.0 mi Calm Calm - N/A   Clear
7:54 AM 39.9 °F - 26.1 °F 58% 30.42 in 10.0 mi Calm Calm - N/A   Clear
8:54 AM 44.1 °F 37.4 °F 21.9 °F 42% 30.41 in 10.0 mi East 13.8 mph - N/A   Clear
9:54 AM 45.0 °F 39.7 °F 18.0 °F 34% 30.42 in 10.0 mi ENE 10.4 mph - N/A   Clear
10:54 AM 46.0 °F 42.5 °F 18.0 °F 33% 30.41 in 10.0 mi NE 6.9 mph - N/A   Clear
11:54 AM 48.0 °F - 19.0 °F 32% 30.38 in 10.0 mi ENE 9.2 mph - N/A   Clear
12:54 PM 46.9 °F - 23.0 °F 39% 30.34 in 10.0 mi ENE 12.7 mph - N/A   Clear
1:54 PM 48.0 °F - 23.0 °F 37% 30.32 in 10.0 mi East 8.1 mph - N/A   Clear
2:54 PM 51.1 °F - 26.1 °F 38% 30.27 in 10.0 mi ESE 10.4 mph 18.4 mph N/A   Clear
3:54 PM 46.9 °F - 24.1 °F 41% 30.25 in 10.0 mi East 11.5 mph - N/A   Clear
4:54 PM 46.9 °F - 27.0 °F 46% 30.26 in 10.0 mi East 8.1 mph - N/A   Clear
6:54 PM 42.1 °F 37.7 °F 33.1 °F 70% 30.22 in 6.0 mi East 6.9 mph - 0.04 in Rain Light Rain
7:54 PM 42.1 °F 39.2 °F 36.0 °F 79% 30.18 in 10.0 mi East 4.6 mph - 0.04 in Rain Light Rain
8:54 PM 42.1 °F 37.7 °F 36.0 °F 79% 30.14 in 9.0 mi NNE 6.9 mph - 0.04 in Rain Light Rain
9:54 PM 42.1 °F 37.7 °F 36.0 °F 79% 30.12 in 10.0 mi NE 6.9 mph - 0.01 in Rain Light Rain
10:54 PM 42.1 °F 37.1 °F 36.0 °F 79% 30.09 in 7.0 mi NE 8.1 mph - 0.03 in Rain Light Rain
11:52 PM 42.8 °F 37.5 °F 37.4 °F 81% 30.01 in 4.0 mi NE 9.2 mph - 0.12 in Rain Rain
11:54 PM 42.1 °F 36.1 °F 37.0 °F 82% 30.02 in 4.0 mi NE 10.4 mph - 0.12 in Rain Light Rain